QPF
0.00 0.00 0.00 0.00 0.00 0.00 0.00 0.00 0.00 0.00 0.00 0.00 0.00 0.00 0.00 0.00 0.00 0.00 0.00 0.00 0.00 0.00 0.00 0.00 0.00 0.00 0.00 0.00 0.00 0.00 0.00 0.00 0.00 0.00 0.00 0.00 0.00 0.00 0.00 0.00 0.00 0.00 0.00
0.00 0.00 0.00 0.00 0.00 0.00 0.00 0.00 0.00 0.00 0.00 0.00 0.00 0.00 0.00 0.00 0.00 0.00 0.00 0.00 0.00 0.00 0.00 0.00 0.00 0.00 0.00 0.00 0.00 0.00 0.00 0.00 0.00 0.00 0.00 0.00 0.00 0.00 0.00 0.00 0.00 0.00 0.00
0.00 0.00 0.00 0.00 0.00 0.00 0.00 0.00 0.00 0.00 0.00 0.00 0.00 0.00 0.00 0.00 0.00 0.00 0.00 0.00 0.00 0.00 0.00 0.00 0.00 0.00 0.00 0.00 0.00 0.00 0.00 0.00 0.00 0.00 0.00 0.00 0.00 0.00 0.00 0.00 0.00 0.00 0.00
0.00 0.00 0.00 0.00 0.00 0.00 0.00 0.00 0.00 0.00 0.00 0.00 0.00 0.00 0.00 0.00 0.00 0.00 0.00 0.00 0.00 0.00 0.00 0.00 0.00 0.00 0.01 0.01 0.01 0.01 0.00 0.01 0.00 0.00 0.00 0.00 0.00 0.00 0.00 0.00 0.00 0.00 0.00
0.00 0.00 0.00 0.00 0.00 0.00 0.00 0.00 0.00 0.00 0.00 0.00 0.00 0.00 0.00 0.00 0.00 0.00 0.00 0.00 0.00 0.00 0.00 0.00 0.00 0.00 0.00 0.01 0.01 0.01 0.01 0.01 0.00 0.00 0.00 0.00 0.00 0.00 0.01 0.00 0.00 0.00 0.00
0.00 0.00 0.00 0.00 0.00 0.00 0.00 0.00 0.00 0.01 0.01 0.04 0.05 0.03 0.00 0.00 0.00 0.00 0.00 0.00 0.00 0.00 0.00 0.01 0.01 0.01 0.01 0.04 0.02 0.01 0.01 0.02 0.01 0.00 0.00 0.00 0.01 0.01 0.02 0.03 0.01 0.00 0.00
0.00 0.00 0.00 0.00 0.00 0.00 0.00 0.00 0.00 0.02 0.08 0.08 0.03 0.02 0.00 0.01 0.01 0.00 0.00 0.00 0.00 0.00 0.02 0.02 0.00 0.00 0.01 0.01 0.03 0.06 0.02 0.01 0.00 0.00 0.00 0.01 0.02 0.02 0.02 0.01 0.01 0.01 0.00
0.00 0.00 0.00 0.00 0.00 0.00 0.00 0.00 0.00 0.00 0.01 0.03 0.03 0.03 0.01 0.01 0.01 0.00 0.00 0.00 0.00 0.00 0.00 0.01 0.01 0.01 0.00 0.01 0.05 0.04 0.01 0.01 0.01 0.01 0.02 0.01 0.01 0.00 0.00 0.00 0.00 0.00 0.00
0.00 0.00 0.00 0.00 0.00 0.00 0.00 0.00 0.00 0.00 0.00 0.00 0.01 0.01 0.00 0.00 0.00 0.00 0.00 0.00 0.00 0.00 0.00 0.01 0.01 0.01 0.02 0.01 0.00 0.00 0.00 0.00 0.00 0.00 0.00 0.00 0.00 0.00 0.00 0.00 0.00 0.00 0.00
0.00 0.00 0.00 0.00 0.00 0.00 0.00 0.00 0.00 0.00 0.00 0.00 0.00 0.00 0.00 0.00 0.02 0.01 0.01 0.00 0.00 0.02 0.03 0.02 0.03 0.00 0.01 0.00 0.00 0.00 0.00 0.00 0.00 0.00 0.00 0.00 0.00 0.00 0.00 0.00 0.00 0.01 0.01
0.00 0.00 0.00 0.00 0.00 0.00 0.00 0.00 0.00 0.01 0.00 0.00 0.00 0.00 0.01 0.00 0.03 0.02 0.01 0.00 0.00 0.01 0.01 0.02 0.02 0.01 0.00 0.00 0.00 0.00 0.00 0.00 0.00 0.00 0.00 0.00 0.00 0.00 0.00 0.00 0.01 0.01 0.00
0.00 0.00 0.00 0.00 0.00 0.00 0.00 0.01 0.00 0.01 0.00 0.01 0.01 0.03 0.05 0.08 0.09 0.04 0.01 0.00 0.02 0.01 0.02 0.01 0.04 0.03 0.01 0.00 0.00 0.00 0.00 0.00 0.00 0.00 0.00 0.00 0.00 0.00 0.00 0.00 0.00 0.00 0.00
0.00 0.00 0.00 0.00 0.00 0.00 0.01 0.00 0.00 0.00 0.01 0.02 0.02 0.05 0.09 0.13 0.14 0.11 0.03 0.01 0.00 0.01 0.02 0.05 0.03 0.01 0.00 0.00 0.00 0.00 0.00 0.00 0.00 0.00 0.00 0.00 0.00 0.00 0.00 0.00 0.00 0.00 0.00
0.00 0.00 0.00 0.00 0.00 0.00 0.00 0.00 0.00 0.01 0.01 0.03 0.06 0.08 0.06 0.04 0.02 0.01 0.00 0.00 0.00 0.00 0.02 0.01 0.00 0.00 0.00 0.00 0.00 0.00 0.00 0.00 0.00 0.00 0.00 0.00 0.00 0.00 0.00 0.00 0.00 0.00 0.00
0.00 0.00 0.00 0.00 0.00 0.00 0.00 0.00 0.00 0.01 0.01 0.01 0.01 0.02 0.00 0.01 0.02 0.01 0.00 0.00 0.00 0.00 0.00 0.00 0.00 0.00 0.00 0.00 0.00 0.00 0.00 0.00 0.00 0.00 0.00 0.00 0.00 0.00 0.00 0.00 0.00 0.00 0.00
0.00 0.00 0.00 0.00 0.00 0.00 0.00 0.00 0.00 0.00 0.00 0.00 0.00 0.00 0.00 0.00 0.03 0.01 0.00 0.01 0.00 0.00 0.00 0.00 0.00 0.00 0.00 0.00 0.00 0.00 0.00 0.00 0.00 0.00 0.00 0.00 0.00 0.00 0.00 0.00 0.00 0.00 0.00
0.00 0.00 0.00 0.00 0.00 0.00 0.00 0.00 0.00 0.00 0.00 0.00 0.00 0.00 0.00 0.00 0.00 0.00 0.00 0.00 0.00 0.00 0.00 0.00 0.00 0.00 0.00 0.00 0.00 0.00 0.00 0.00 0.00 0.00 0.00 0.00 0.00 0.00 0.00 0.00 0.00 0.00 0.00
0.00 0.00 0.00 0.00 0.00 0.00 0.00 0.00 0.00 0.00 0.00 0.00 0.00 0.00 0.00 0.00 0.00 0.00 0.00 0.00 0.00 0.00 0.00 0.00 0.00 0.00 0.00 0.00 0.00 0.00 0.00 0.00 0.00 0.00 0.00 0.00 0.00 0.00 0.00 0.00 0.00 0.00 0.00
0.00 0.00 0.00 0.00 0.00 0.00 0.00 0.00 0.00 0.00 0.00 0.00 0.00 0.00 0.00 0.00 0.00 0.00 0.00 0.00 0.00 0.00 0.00 0.00 0.00 0.00 0.00 0.00 0.00 0.00 0.00 0.00 0.00 0.00 0.00 0.00 0.00 0.00 0.00 0.00 0.00 0.00 0.00
0.00 0.00 0.00 0.00 0.00 0.00 0.00 0.00 0.00 0.00 0.00 0.00 0.00 0.00 0.00 0.00 0.00 0.00 0.00 0.00 0.00 0.00 0.00 0.00 0.00 0.00 0.00 0.00 0.00 0.00 0.00 0.00 0.00 0.00 0.00 0.00 0.00 0.00 0.00 0.00 0.00 0.00 0.00
0.00 0.00 0.00 0.00 0.00 0.00 0.00 0.00 0.00 0.00 0.00 0.00 0.00 0.00 0.00 0.00 0.00 0.00 0.00 0.00 0.00 0.00 0.00 0.00 0.00 0.00 0.00 0.00 0.00 0.00 0.00 0.00 0.00 0.00 0.00 0.00 0.00 0.00 0.00 0.00 0.00 0.00 0.00
0.00 0.00 0.00 0.00 0.00 0.00 0.00 0.00 0.00 0.00 0.00 0.00 0.01 0.00 0.00 0.00 0.00 0.00 0.00 0.00 0.00 0.00 0.00 0.00 0.00 0.00 0.00 0.00 0.00 0.00 0.00 0.00 0.00 0.00 0.00 0.00 0.00 0.00 0.00 0.00 0.00 0.00 0.00
0.00 0.00 0.00 0.00 0.00 0.02 0.00 0.00 0.00 0.00 0.00 0.00 0.00 0.00 0.00 0.00 0.00 0.00 0.00 0.00 0.00 0.00 0.00 0.00 0.00 0.00 0.00 0.00 0.00 0.00 0.00 0.00 0.00 0.00 0.00 0.00 0.00 0.00 0.00 0.00 0.00 0.00 0.00
0.00 0.00 0.00 0.00 0.00 0.00 0.00 0.00 0.00 0.00 0.00 0.00 0.00 0.00 0.00 0.00 0.00 0.00 0.00 0.00 0.00 0.00 0.00 0.00 0.00 0.00 0.00 0.00 0.00 0.00 0.00 0.00 0.00 0.00 0.00 0.00 0.00 0.00 0.00 0.00 0.00 0.00 0.00
0.00 0.00 0.00 0.00 0.00 0.00 0.00 0.00 0.00 0.00 0.00 0.00 0.00 0.00 0.00 0.00 0.00 0.00 0.00 0.00 0.00 0.00 0.00 0.00 0.00 0.00 0.00 0.00 0.00 0.00 0.00 0.00 0.00 0.00 0.00 0.00 0.00 0.00 0.00 0.00 0.00 0.00 0.00
0.00 0.00 0.00 0.00 0.00 0.00 0.00 0.00 0.00 0.00 0.00 0.00 0.00 0.00 0.00 0.00 0.00 0.00 0.00 0.00 0.00 0.00 0.00 0.00 0.00 0.00 0.00 0.00 0.00 0.00 0.00 0.00 0.00 0.00 0.00 0.00 0.00 0.00 0.00 0.00 0.00 0.00 0.00
MSLP
1006.01 1006.80 1007.62 1008.28 1008.88 1009.48 1009.75 1009.96 1010.41 1010.99 1011.53 1012.10 1012.55 1013.02 1013.33 1014.02 1014.32 1014.40 1015.81 1015.78 1015.89 1016.35 1016.84 1016.70 1016.63 1016.71 1016.61 1016.10 1015.84 1015.82 1015.89 1015.89 1015.73 1015.70 1015.81 1015.80 1015.92 1015.91 1015.78 1015.74 1015.64 1015.50 1015.29
1004.94 1005.86 1006.55 1007.25 1007.86 1008.31 1008.94 1009.27 1009.86 1010.45 1010.92 1011.54 1012.12 1012.27 1012.79 1012.97 1013.63 1014.15 1014.51 1014.94 1015.36 1015.66 1016.04 1016.23 1016.19 1016.12 1016.32 1016.31 1016.10 1015.92 1015.75 1015.94 1015.96 1015.58 1015.49 1015.46 1015.41 1015.26 1015.03 1014.98 1014.80 1014.61 1014.34
1003.87 1004.75 1005.51 1006.09 1006.67 1007.21 1007.89 1008.42 1009.07 1009.72 1010.28 1010.96 1011.36 1012.05 1012.30 1012.70 1012.82 1012.96 1013.28 1014.55 1014.90 1014.98 1015.34 1015.63 1015.73 1015.87 1016.06 1015.89 1015.90 1015.91 1015.82 1015.60 1015.42 1015.46 1015.22 1015.23 1015.30 1015.10 1014.83 1014.43 1014.46 1014.44 1014.07
1002.43 1003.28 1004.09 1004.87 1005.57 1006.27 1006.83 1007.56 1008.15 1009.02 1009.50 1009.92 1010.57 1011.56 1011.96 1012.41 1012.41 1012.58 1012.59 1013.55 1014.28 1014.47 1014.86 1015.08 1015.17 1015.50 1015.80 1015.98 1016.11 1016.05 1015.86 1015.73 1015.36 1015.08 1014.79 1014.94 1014.82 1014.31 1014.10 1013.64 1013.96 1013.90 1013.48
1001.02 1002.00 1002.80 1003.89 1004.77 1005.48 1006.01 1006.60 1007.48 1008.22 1008.96 1009.63 1009.92 1010.69 1011.38 1011.88 1012.07 1012.18 1012.09 1012.60 1013.58 1014.05 1014.27 1014.59 1014.84 1015.08 1015.35 1015.49 1015.63 1015.70 1015.72 1015.63 1015.15 1014.83 1014.54 1014.33 1013.93 1013.69 1013.80 1013.63 1013.51 1013.10 1012.70
1000.05 1000.77 1001.76 1002.91 1003.95 1004.61 1005.28 1006.08 1007.19 1008.02 1008.87 1009.59 1010.10 1010.67 1010.82 1011.08 1011.24 1011.66 1011.80 1012.32 1012.84 1013.27 1013.61 1013.81 1014.10 1014.39 1014.59 1014.79 1015.11 1015.34 1015.89 1016.11 1015.71 1015.33 1014.71 1014.32 1014.24 1014.11 1013.88 1013.96 1013.65 1012.99 1012.08
999.46 1000.14 1001.06 1002.15 1003.05 1004.03 1005.01 1005.88 1006.70 1007.60 1008.33 1008.61 1009.11 1010.18 1010.84 1011.06 1011.37 1011.50 1011.78 1011.97 1012.23 1012.75 1013.26 1013.60 1013.67 1013.65 1014.08 1014.35 1014.60 1014.82 1014.86 1015.24 1015.23 1014.90 1014.65 1014.41 1014.27 1014.01 1014.06 1013.78 1013.29 1013.03 1012.42
999.25 1000.06 1000.82 1001.74 1002.88 1003.84 1004.59 1005.42 1006.36 1007.15 1007.60 1008.42 1008.93 1009.32 1010.01 1010.75 1011.19 1011.22 1011.57 1011.96 1012.12 1012.28 1012.34 1012.63 1013.12 1013.55 1013.91 1014.22 1014.14 1014.33 1014.32 1013.93 1013.95 1014.05 1013.98 1013.87 1013.80 1013.79 1013.98 1013.77 1013.49 1012.98 1012.15
999.36 1000.26 1001.00 1001.81 1002.70 1003.67 1004.59 1005.36 1006.11 1006.60 1006.96 1007.79 1008.97 1008.84 1009.09 1009.78 1010.31 1010.81 1011.32 1011.43 1011.81 1011.86 1011.93 1012.26 1012.58 1013.29 1013.74 1013.58 1013.54 1013.48 1013.44 1013.16 1012.88 1013.04 1013.04 1013.33 1013.59 1013.62 1013.64 1013.48 1012.68 1011.70 1010.90
999.25 1000.19 1001.08 1001.94 1002.68 1003.46 1004.40 1005.33 1006.03 1006.59 1007.17 1007.49 1008.04 1008.54 1008.91 1009.18 1009.76 1010.33 1010.81 1011.07 1011.07 1011.02 1011.47 1011.92 1012.82 1013.01 1013.22 1013.30 1013.40 1013.39 1013.16 1012.80 1012.44 1012.41 1012.80 1013.05 1012.84 1012.43 1012.54 1012.54 1011.81 1011.18 1010.64
999.22 1000.12 1001.07 1001.99 1002.77 1003.48 1004.39 1005.17 1005.83 1006.53 1007.03 1007.54 1007.96 1007.96 1008.21 1008.56 1009.09 1009.98 1010.69 1010.79 1010.16 1010.01 1010.98 1011.50 1011.84 1012.45 1013.06 1013.43 1013.53 1013.20 1012.99 1013.06 1012.68 1012.70 1012.30 1011.65 1010.97 1010.87 1010.53 1010.56 1011.03 1010.76 1010.18
999.28 1000.18 1001.16 1002.06 1002.72 1003.52 1004.35 1005.02 1005.77 1006.48 1007.10 1007.42 1007.70 1007.73 1007.67 1008.40 1008.93 1009.83 1010.42 1010.86 1010.75 1010.57 1010.67 1010.97 1011.42 1012.28 1012.99 1013.21 1013.20 1013.05 1013.22 1013.24 1012.65 1012.03 1011.19 1010.53 1010.38 1010.23 1010.16 1010.31 1010.52 1010.38 1009.98
999.77 1000.49 1001.43 1002.48 1003.19 1003.83 1004.54 1005.32 1006.07 1006.78 1007.23 1007.33 1007.43 1007.26 1007.52 1008.45 1009.27 1010.07 1010.52 1010.87 1010.89 1011.10 1011.27 1011.61 1012.00 1012.53 1012.69 1012.95 1013.15 1013.43 1013.37 1012.80 1012.05 1011.15 1010.63 1010.53 1010.47 1010.39 1010.50 1010.15 1009.57 1009.14 1008.78
1000.66 1001.52 1002.12 1002.89 1003.56 1004.33 1005.04 1005.80 1006.32 1006.66 1006.95 1006.86 1007.05 1007.36 1007.78 1008.28 1009.01 1009.71 1010.70 1010.87 1011.06 1011.27 1011.65 1011.57 1011.78 1011.90 1012.23 1012.54 1012.56 1012.73 1012.45 1012.00 1011.30 1011.29 1011.16 1010.75 1010.46 1010.25 1009.89 1009.57 1009.08 1008.76 1008.37
1000.92 1001.83 1002.37 1002.92 1003.65 1004.63 1005.65 1006.57 1006.73 1006.96 1007.17 1006.83 1006.62 1007.15 1007.70 1008.38 1009.03 1009.21 1009.85 1010.30 1009.82 1010.35 1010.43 1010.38 1010.75 1010.61 1010.36 1010.55 1010.74 1011.13 1011.41 1010.99 1010.97 1010.87 1010.72 1010.56 1010.35 1010.08 1009.77 1009.42 1009.09 1008.73 1008.03
1001.00 1001.65 1002.24 1002.77 1003.47 1004.36 1005.37 1006.85 1007.87 1007.86 1007.93 1007.58 1007.37 1007.79 1008.43 1008.80 1009.37 1009.73 1010.04 1010.33 1010.37 1010.57 1010.40 1010.01 1009.38 1009.26 1009.26 1009.53 1009.89 1010.16 1010.33 1010.47 1010.57 1010.69 1010.80 1010.64 1010.26 1010.04 1009.69 1009.40 1008.96 1008.50 1007.90
1000.72 1000.93 1001.36 1001.53 1002.20 1003.15 1003.71 1004.60 1006.20 1008.01 1007.99 1008.06 1008.32 1008.54 1008.50 1009.57 1009.81 1010.02 1010.21 1010.46 1010.66 1010.85 1010.38 1009.21 1008.94 1009.16 1009.31 1009.54 1009.83 1010.10 1010.27 1010.29 1010.88 1010.91 1010.62 1010.50 1010.23 1009.84 1009.54 1009.14 1008.70 1008.26 1007.71
1000.66 1001.19 1001.19 1000.83 1001.47 1002.07 1002.75 1003.53 1004.08 1005.58 1006.67 1007.93 1009.02 1009.17 1009.46 1009.72 1009.98 1010.25 1010.53 1010.78 1010.91 1010.74 1009.75 1008.92 1008.85 1009.06 1009.43 1009.88 1010.13 1010.21 1010.30 1010.43 1010.44 1010.49 1010.53 1010.36 1009.98 1009.64 1009.34 1008.94 1008.51 1008.01 1007.57
1000.72 1001.20 1001.13 1000.94 1001.27 1001.87 1002.48 1002.98 1003.30 1003.88 1004.64 1006.64 1008.60 1009.61 1010.31 1010.49 1010.69 1010.92 1011.01 1010.37 1009.10 1008.68 1008.50 1008.76 1009.07 1009.39 1009.56 1009.94 1010.31 1010.50 1010.84 1010.88 1010.92 1011.10 1010.66 1010.10 1009.82 1009.58 1009.18 1008.76 1008.31 1007.79 1007.26
1000.86 1001.21 1001.02 1001.23 1001.91 1002.29 1002.59 1002.65 1002.91 1003.43 1004.06 1005.90 1006.94 1008.18 1009.61 1010.46 1010.43 1010.34 1009.99 1009.34 1008.90 1008.65 1008.48 1008.94 1009.20 1009.63 1009.96 1010.32 1010.57 1010.76 1010.90 1010.63 1010.48 1010.40 1010.12 1010.06 1009.81 1009.59 1009.05 1008.66 1008.06 1007.44 1006.72
1000.81 1001.52 1001.43 1001.23 1001.68 1002.02 1002.25 1002.51 1002.66 1003.02 1003.37 1004.25 1005.17 1006.35 1007.82 1008.57 1008.13 1008.08 1008.09 1008.40 1008.66 1008.52 1008.75 1009.13 1009.28 1009.70 1010.11 1010.54 1010.84 1010.90 1010.71 1010.36 1010.27 1010.35 1010.23 1010.03 1009.87 1009.47 1009.00 1008.52 1007.85 1007.24 1006.59
1000.38 1001.13 1001.38 1001.24 1001.53 1002.19 1002.41 1002.50 1002.69 1002.95 1003.32 1004.12 1005.82 1006.99 1007.39 1007.51 1007.33 1007.27 1007.60 1008.04 1008.14 1008.53 1008.71 1009.25 1009.48 1009.45 1009.75 1010.09 1010.54 1010.76 1010.50 1010.26 1010.31 1010.43 1010.48 1010.25 1009.83 1009.36 1009.08 1008.48 1007.80 1007.24 1006.82
1000.66 1000.76 1001.21 1001.47 1001.97 1002.72 1002.92 1002.75 1002.86 1003.28 1003.62 1004.49 1005.84 1006.69 1007.25 1006.88 1006.97 1007.21 1007.67 1007.93 1008.20 1008.45 1008.81 1009.26 1009.51 1009.66 1009.81 1010.37 1010.75 1010.81 1010.49 1010.20 1010.52 1010.82 1010.82 1010.50 1009.93 1009.50 1009.38 1008.55 1007.91 1007.42 1007.12
1001.18 1001.16 1001.56 1001.97 1002.28 1002.34 1002.19 1002.82 1003.38 1003.67 1003.90 1004.34 1005.04 1005.79 1006.48 1006.69 1007.07 1007.12 1007.37 1007.74 1007.97 1008.47 1008.85 1009.11 1009.47 1009.55 1009.78 1010.52 1010.52 1010.67 1010.57 1010.84 1011.37 1011.12 1011.33 1010.89 1010.20 1009.82 1009.54 1008.74 1008.16 1007.89 1007.30
1001.49 1001.74 1001.97 1002.07 1002.19 1002.53 1002.52 1002.69 1002.89 1003.32 1003.73 1004.41 1005.02 1005.49 1005.95 1006.44 1006.87 1006.87 1007.20 1008.12 1008.69 1008.64 1008.79 1008.97 1009.28 1009.55 1010.13 1010.53 1010.53 1010.78 1012.01 1012.22 1012.24 1012.77 1011.80 1011.18 1010.47 1010.09 1009.29 1008.94 1008.63 1008.06 1007.65
1001.94 1001.90 1002.18 1002.43 1002.69 1002.72 1002.77 1002.74 1002.63 1002.91 1003.44 1003.92 1004.00 1004.52 1005.04 1005.41 1005.88 1006.37 1006.94 1007.53 1007.88 1008.22 1008.28 1008.35 1008.94 1009.51 1009.94 1010.34 1010.69 1011.83 1012.29 1012.55 1012.63 1012.94 1012.57 1011.57 1010.51 1009.91 1010.06 1009.53 1008.94 1008.39 1008.07
Thickness
5826 5821 5815 5812 5809 5805 5804 5802 5799 5795 5789 5781 5772 5765 5758 5747 5738 5731 5718 5722 5720 5714 5708 5708 5706 5705 5703 5707 5710 5708 5704 5703 5696 5696 5697 5695 5690 5688 5687 5685 5683 5682 5681
5832 5824 5820 5818 5814 5810 5806 5805 5801 5794 5790 5781 5773 5767 5760 5752 5740 5731 5727 5723 5716 5712 5708 5704 5702 5704 5698 5697 5698 5698 5698 5695 5690 5688 5689 5687 5684 5684 5684 5681 5679 5677 5675
5836 5830 5826 5823 5819 5815 5811 5809 5803 5795 5789 5781 5775 5764 5759 5752 5745 5739 5734 5718 5712 5709 5705 5702 5698 5696 5691 5692 5691 5687 5686 5688 5686 5680 5678 5677 5675 5673 5672 5673 5668 5666 5663
5846 5840 5833 5828 5825 5819 5816 5810 5803 5797 5789 5784 5776 5764 5758 5750 5746 5740 5735 5723 5711 5706 5701 5698 5696 5689 5684 5681 5678 5677 5677 5674 5674 5673 5674 5669 5668 5668 5666 5663 5657 5656 5654
5853 5846 5840 5834 5828 5823 5818 5812 5804 5796 5789 5782 5776 5766 5756 5749 5743 5737 5733 5723 5710 5701 5697 5693 5690 5685 5679 5675 5672 5669 5667 5665 5666 5664 5663 5664 5662 5659 5650 5650 5647 5648 5647
5855 5851 5847 5839 5830 5823 5817 5810 5800 5791 5782 5774 5764 5757 5752 5748 5743 5733 5729 5718 5710 5701 5694 5690 5686 5681 5678 5674 5667 5662 5654 5649 5651 5648 5651 5650 5647 5644 5641 5634 5632 5632 5635
5856 5853 5846 5839 5831 5823 5815 5806 5797 5787 5779 5773 5765 5752 5744 5742 5731 5726 5719 5714 5707 5698 5689 5682 5680 5681 5673 5670 5663 5658 5655 5648 5645 5644 5640 5637 5635 5634 5628 5624 5623 5619 5620
5852 5847 5843 5836 5826 5819 5811 5802 5792 5784 5776 5765 5757 5752 5742 5732 5722 5719 5711 5703 5698 5694 5690 5685 5678 5672 5668 5663 5660 5654 5651 5650 5644 5639 5636 5633 5629 5625 5617 5614 5610 5609 5613
5844 5838 5835 5829 5820 5813 5803 5795 5787 5779 5772 5762 5749 5745 5739 5732 5721 5711 5703 5700 5691 5688 5687 5681 5675 5667 5661 5658 5656 5649 5646 5644 5641 5637 5633 5625 5617 5612 5606 5603 5604 5607 5609
5839 5834 5829 5823 5816 5807 5799 5788 5780 5771 5761 5757 5747 5739 5732 5725 5713 5705 5699 5693 5687 5685 5681 5676 5662 5663 5655 5651 5647 5639 5636 5634 5634 5629 5623 5616 5613 5610 5604 5600 5602 5600 5599
5836 5830 5823 5816 5808 5801 5791 5781 5772 5761 5752 5744 5736 5733 5728 5721 5711 5698 5688 5687 5689 5688 5676 5670 5666 5655 5645 5636 5631 5632 5628 5622 5621 5615 5613 5615 5616 5611 5610 5606 5598 5595 5593
5829 5822 5814 5807 5801 5792 5781 5772 5761 5750 5741 5733 5726 5722 5721 5712 5703 5690 5683 5675 5675 5673 5668 5664 5657 5645 5634 5627 5624 5621 5613 5607 5608 5607 5609 5610 5606 5604 5603 5598 5591 5589 5586
5816 5809 5802 5793 5786 5778 5768 5757 5745 5737 5728 5722 5716 5714 5709 5701 5692 5678 5671 5665 5660 5658 5653 5644 5637 5629 5624 5618 5611 5606 5599 5600 5601 5604 5604 5600 5597 5595 5592 5591 5592 5590 5589
5795 5788 5784 5777 5769 5761 5753 5745 5734 5727 5720 5717 5711 5703 5698 5693 5685 5675 5663 5658 5650 5645 5637 5635 5629 5624 5616 5610 5606 5599 5598 5598 5599 5593 5589 5590 5590 5587 5586 5586 5585 5584 5582
5784 5775 5770 5763 5756 5744 5734 5725 5722 5714 5710 5711 5709 5699 5690 5681 5674 5669 5660 5652 5652 5642 5638 5634 5626 5623 5620 5615 5609 5602 5596 5596 5591 5588 5585 5582 5580 5579 5578 5579 5577 5576 5576
5769 5764 5757 5751 5743 5733 5723 5709 5691 5690 5687 5686 5686 5681 5673 5664 5655 5648 5641 5636 5633 5627 5627 5624 5624 5621 5616 5610 5603 5597 5593 5587 5584 5579 5574 5572 5572 5570 5570 5570 5570 5569 5570
5762 5758 5752 5747 5741 5729 5723 5714 5700 5681 5674 5670 5665 5660 5659 5647 5640 5635 5630 5623 5618 5611 5615 5619 5616 5610 5605 5600 5594 5588 5582 5579 5572 5568 5567 5566 5565 5565 5564 5564 5565 5565 5565
5751 5739 5740 5740 5731 5724 5717 5708 5703 5688 5679 5667 5648 5646 5637 5633 5628 5622 5616 5610 5609 5604 5610 5611 5607 5603 5596 5588 5582 5577 5573 5569 5566 5563 5559 5558 5560 5560 5559 5559 5559 5560 5561
5736 5729 5728 5727 5722 5715 5707 5701 5696 5687 5680 5664 5642 5630 5621 5615 5610 5605 5600 5609 5615 5614 5612 5606 5600 5592 5586 5579 5572 5567 5561 5557 5554 5549 5551 5554 5554 5554 5555 5556 5556 5555 5556
5722 5712 5715 5712 5704 5697 5693 5689 5683 5676 5669 5655 5646 5634 5619 5608 5609 5607 5604 5607 5607 5606 5604 5595 5589 5582 5574 5568 5563 5558 5553 5553 5552 5550 5550 5549 5549 5549 5550 5551 5553 5555 5558
5708 5701 5698 5701 5693 5687 5683 5677 5674 5669 5664 5655 5649 5643 5623 5616 5619 5616 5613 5606 5599 5598 5593 5586 5581 5574 5567 5560 5554 5550 5549 5550 5548 5545 5545 5545 5544 5545 5546 5547 5550 5552 5555
5701 5695 5690 5687 5683 5675 5671 5668 5664 5660 5655 5646 5631 5624 5615 5618 5616 5613 5608 5601 5599 5593 5588 5580 5574 5572 5565 5558 5551 5546 5546 5546 5543 5540 5538 5538 5540 5541 5540 5542 5545 5547 5548
5687 5685 5678 5675 5668 5658 5656 5656 5654 5647 5643 5634 5622 5617 5613 5614 5611 5607 5600 5596 5591 5586 5581 5574 5569 5564 5560 5550 5544 5541 5541 5541 5537 5533 5531 5531 5533 5533 5531 5534 5537 5538 5538
5670 5668 5662 5658 5654 5652 5653 5647 5639 5634 5632 5629 5623 5616 5610 5607 5601 5599 5596 5591 5587 5581 5575 5570 5564 5560 5556 5545 5541 5537 5535 5531 5525 5525 5521 5522 5525 5525 5523 5527 5529 5529 5532
5656 5653 5650 5646 5645 5641 5640 5638 5635 5632 5628 5620 5614 5610 5606 5601 5596 5595 5591 5582 5575 5573 5570 5566 5560 5555 5547 5541 5537 5532 5522 5518 5514 5510 5512 5515 5518 5518 5521 5521 5521 5523 5524
5640 5641 5637 5634 5631 5631 5629 5628 5628 5625 5620 5616 5616 5610 5606 5602 5597 5592 5587 5580 5575 5570 5568 5565 5557 5550 5544 5538 5532 5523 5517 5511 5508 5505 5503 5507 5514 5516 5512 5513 5515 5518 5517